AB4CZ-1 Weather Reports


time (UTC)temp
F
wind
direction
speed
knots
gust
knots
rain 1hr
in
rain 24hr
in
rain mn
in
humidity
%
barometer
mb
20260504192309 79 0 0.0 0.0 0.00 0.00 0.00 36 1015.9
20260504192132 79 0 0.0 0.0 0.00 0.00 0.00 36 1015.9
20260504191636 79 0 0.0 0.0 0.00 0.00 0.00 37 1016.0
20260504191239 79 0 0.0 0.0 0.00 0.00 0.00 37 1016.0
20260504191132 79 0 0.0 0.0 0.00 0.00 0.00 37 1016.0
20260504190146 79 0 0.0 0.0 0.00 0.00 0.00 36 1016.2
20260504185132 79 0 0.0 0.0 0.00 0.00 0.00 35 1016.3
20260504184132 79 0 0.0 0.0 0.00 0.00 0.00 36 1016.4
20260504183132 79 0 0.0 0.0 0.00 0.00 0.00 35 1016.5
20260504182132 80 0 0.0 0.0 0.00 0.00 0.00 38 1016.7
20260504181632 80 0 0.0 0.0 0.00 0.00 0.00 39 1016.7
20260504181225 79 0 0.0 0.0 0.00 0.00 0.00 40 1016.8
20260504181132 79 0 0.0 0.0 0.00 0.00 0.00 40 1016.8
20260504180132 80 0 0.0 0.0 0.00 0.00 0.00 36 1016.8
20260504175708 80 0 0.0 0.0 0.00 0.00 0.00 39 1016.9
20260504175632 80 0 0.0 0.0 0.00 0.00 0.00 39 1016.9
20260504175132 79 0 0.0 0.0 0.00 0.00 0.00 39 1017.0
20260504173637 79 0 0.0 0.0 0.00 0.00 0.00 37 1017.2
20260504173340 79 0 0.0 0.0 0.00 0.00 0.00 40 1017.3
20260504173131 79 0 0.0 0.0 0.00 0.00 0.00 40 1017.3
20260504172131 77 0 0.0 0.0 0.00 0.00 0.00 39 1017.7
20260504171633 77 0 0.0 0.0 0.00 0.00 0.00 38 1017.8
20260504171131 77 0 0.0 0.0 0.00 0.00 0.00 41 1017.8
20260504160138 75 0 0.0 0.0 0.00 0.00 0.00 45 1018.7
20260504160105 75 0 0.0 0.0 0.00 0.00 0.00 41 1018.7
20260504150635 73 0 0.0 0.0 0.00 0.00 0.00 45 1019.2
20260504150131 72 0 0.0 1.7 0.00 0.00 0.00 46 1019.1
20260504141132 68 0 0.0 0.0 0.00 0.00 0.00 55 1019.4
20260504140634 68 0 0.0 0.0 0.00 0.00 0.00 56 1019.4
20260504140131 68 0 0.0 0.9 0.00 0.00 0.00 55 1019.4
20260504130131 62 0 0.0 0.0 0.00 0.00 0.00 72 1019.4
20260504120132 46 0 0.0 0.0 0.00 0.00 0.00 96 1018.7
20260504110133 43 0 0.0 0.0 0.00 0.00 0.00 95 1018.1
20260504100429 44 0 0.0 0.0 0.00 0.00 0.00 94 1017.8
20260504100131 44 0 0.0 0.0 0.00 0.00 0.00 94 1017.8
20260504081131 45 0 0.0 0.0 0.00 0.00 0.00 92 1017.8
20260504080713 45 0 0.0 0.0 0.00 0.00 0.00 92 1017.8
20260504080146 45 0 0.0 0.0 0.00 0.00 0.00 91 1017.8
20260504070131 46 0 0.0 0.0 0.00 0.00 0.00 90 1019.2
20260504060221 48 0 0.0 0.0 0.00 0.00 0.00 88 1019.3
20260504060145 48 0 0.0 0.0 0.00 0.00 0.00 88 1019.3
20260504050637 49 0 0.0 0.0 0.00 0.00 0.00 84 1019.4
20260504050137 49 0 0.0 0.0 0.00 0.00 0.00 83 1019.5
20260504045728 49 0 0.0 0.0 0.00 0.00 0.00 83 1019.4
20260504045131 50 0 0.0 0.0 0.00 0.00 0.00 83 1019.5
20260504044131 50 0 0.0 0.0 0.00 0.00 0.00 83 1019.4
20260504043636 50 0 0.0 0.0 0.00 0.00 0.00 82 1019.4
20260504043147 50 0 0.0 0.0 0.00 0.00 0.00 82 1019.4
20260504042131 50 0 0.0 0.0 0.00 0.00 0.00 81 1019.5
20260504041634 51 0 0.0 0.0 0.00 0.00 0.00 82 1019.5
20260504041131 51 0 0.0 0.0 0.00 0.00 0.00 81 1019.5
20260504040637 51 0 0.0 0.0 0.00 0.00 0.00 80 1019.5
20260504040131 51 0 0.0 0.0 0.00 0.00 0.00 81 1019.5
20260504035631 51 0 0.0 0.0 0.00 0.00 0.00 80 1019.5
20260504035139 51 0 0.0 0.0 0.00 0.00 0.00 80 1019.5
20260504034637 51 0 0.0 0.0 0.00 0.00 0.00 80 1019.6
20260504034308 51 0 0.0 0.0 0.00 0.00 0.00 79 1019.5
20260504034131 51 0 0.0 0.0 0.00 0.00 0.00 79 1019.5
20260504033634 52 0 0.0 0.0 0.00 0.00 0.00 79 1019.6
20260504033131 52 0 0.0 0.0 0.00 0.00 0.00 78 1019.6
20260504032131 52 0 0.0 0.0 0.00 0.00 0.00 78 1019.5
20260504031631 52 0 0.0 0.0 0.00 0.00 0.00 78 1019.5
20260504031134 52 0 0.0 0.0 0.00 0.00 0.00 77 1019.5
20260504025722 53 0 0.0 0.0 0.00 0.00 0.00 75 1019.5
20260504025318 53 0 0.0 0.0 0.00 0.00 0.00 74 1019.5
20260504025314 53 0 0.0 0.0 0.00 0.00 0.00 73 1019.6
20260504025131 53 0 0.0 0.0 0.00 0.00 0.00 74 1019.5
20260504024639 53 0 0.0 0.0 0.00 0.00 0.00 73 1019.6
20260504024138 53 0 0.0 0.0 0.00 0.00 0.00 72 1019.5
20260504023637 54 0 0.0 0.0 0.00 0.00 0.00 71 1019.5
20260504023256 54 0 0.0 0.0 0.00 0.00 0.00 71 1019.5
20260504023152 54 0 0.0 0.0 0.00 0.00 0.00 71 1019.5
20260504022131 54 0 0.0 0.0 0.00 0.00 0.00 70 1019.3
20260504021636 55 0 0.0 0.0 0.00 0.00 0.00 70 1019.2
20260504020636 55 0 0.0 0.0 0.00 0.00 0.00 68 1018.9
20260504020134 55 0 0.0 0.0 0.00 0.00 0.00 68 1018.9
20260504015641 55 0 0.0 0.0 0.00 0.00 0.00 66 1018.8
20260504015131 56 0 0.0 0.0 0.00 0.00 0.00 66 1018.7
20260504014639 56 0 0.0 0.0 0.00 0.00 0.00 65 1018.7
20260504014131 56 0 0.0 0.0 0.00 0.00 0.00 64 1018.7
20260504012631 57 0 0.0 0.0 0.00 0.00 0.00 64 1018.5
20260504012131 57 0 0.0 0.0 0.00 0.00 0.00 62 1018.4
20260504011631 58 0 0.0 0.0 0.00 0.00 0.00 61 1018.4
20260504011131 58 0 0.0 0.0 0.00 0.00 0.00 60 1018.2
20260504010633 58 0 0.0 0.0 0.00 0.00 0.00 58 1018.2
20260504010132 59 0 0.0 0.0 0.00 0.00 0.00 57 1018.3
20260504005634 59 0 0.0 0.0 0.00 0.00 0.00 56 1018.3
20260504005131 60 0 0.0 0.0 0.00 0.00 0.00 56 1018.1
20260504004131 60 0 0.0 0.0 0.00 0.00 0.00 53 1018.0
20260504003631 61 0 0.0 0.0 0.00 0.00 0.00 51 1017.9
20260504002634 62 0 0.0 0.0 0.00 0.00 0.00 48 1017.9
20260504001631 63 0 0.0 0.0 0.00 0.00 0.00 47 1017.8
20260504000631 64 0 0.0 0.0 0.00 0.00 0.00 45 1017.8
20260504000131 64 0 0.0 0.0 0.00 0.00 0.00 45 1017.8
20260503235238 65 0 0.0 0.0 0.00 0.00 0.00 44 1017.8
20260503234631 65 0 0.0 0.0 0.00 0.00 0.00 44 1017.7
20260503234131 65 0 0.0 0.0 0.00 0.00 0.00 44 1017.8
20260503233634 65 0 0.0 0.9 0.00 0.00 0.00 43 1017.7
20260503233133 66 0 0.0 0.9 0.00 0.00 0.00 44 1017.8
20260503232636 66 0 0.0 0.9 0.00 0.00 0.00 45 1017.7
20260503232131 66 0 0.0 0.9 0.00 0.00 0.00 43 1017.8
20260503231131 67 0 0.0 0.0 0.00 0.00 0.00 43 1017.9
20260503230631 67 0 0.0 0.0 0.00 0.00 0.00 44 1017.9
20260503225132 68 0 0.0 0.0 0.00 0.00 0.00 41 1018.0
20260503223638 68 0 0.0 0.0 0.00 0.00 0.00 40 1017.8
20260503223132 68 0 0.0 0.0 0.00 0.00 0.00 39 1017.8
20260503222858 68 0 0.0 0.0 0.00 0.00 0.00 40 1017.9
20260503222645 68 0 0.0 0.0 0.00 0.00 0.00 40 1017.9
20260503222132 68 0 0.0 0.0 0.00 0.00 0.00 41 1017.9
20260503221635 68 0 0.0 0.0 0.00 0.00 0.00 41 1017.9
20260503221132 68 0 0.0 0.0 0.00 0.00 0.00 40 1017.8
20260503220631 68 0 0.0 0.0 0.00 0.00 0.00 40 1017.8
20260503220427 69 0 0.0 0.0 0.00 0.00 0.00 44 1017.9
20260503220131 69 0 0.0 0.0 0.00 0.00 0.00 44 1017.9
20260503215631 69 0 0.0 0.0 0.00 0.00 0.00 42 1017.8
20260503213131 69 0 0.0 0.0 0.00 0.00 0.00 41 1018.0
20260503211724 69 0 0.0 0.0 0.00 0.00 0.00 39 1018.2
20260503211634 69 0 0.0 0.0 0.00 0.00 0.00 39 1018.2
20260503211141 69 0 0.0 0.0 0.00 0.00 0.00 39 1018.1
20260503210631 69 0 0.0 0.0 0.00 0.00 0.00 38 1018.2
20260503210131 69 0 0.0 0.0 0.00 0.00 0.00 36 1018.3
20260503205131 70 0 0.0 0.0 0.00 0.00 0.00 38 1018.4
20260503204133 70 0 0.0 0.0 0.00 0.00 0.00 39 1018.3
20260503203959 70 0 0.0 0.0 0.00 0.00 0.00 38 1018.6
20260503203631 70 0 0.0 0.0 0.00 0.00 0.00 38 1018.6
20260503203131 70 0 0.0 0.0 0.00 0.00 0.00 36 1018.6
20260503202131 71 0 0.0 0.0 0.00 0.00 0.00 38 1018.8
20260503201631 71 0 0.0 0.0 0.00 0.00 0.00 36 1018.9
20260503200131 72 0 0.0 0.0 0.00 0.00 0.00 36 1019.1
20260503195631 72 0 0.0 0.0 0.00 0.00 0.00 35 1019.2
20260503195131 72 0 0.0 0.0 0.00 0.00 0.00 34 1019.2
20260503194634 72 0 0.0 0.0 0.00 0.00 0.00 34 1019.4
20260503194131 71 0 0.0 0.0 0.00 0.00 0.00 31 1019.4
20260503193635 72 0 0.0 0.0 0.00 0.00 0.00 37 1019.4
20260503193140 71 0 0.0 0.0 0.00 0.00 0.00 36 1019.5
20260503192633 71 0 0.0 0.0 0.00 0.00 0.00 38 1019.6